sat.trackr.live / text

‹ back to catalog

STARLINK-31183

NORAD 58747 · 2024-005V

PAYLOAD ACTIVE UNKNOWN

§ Identity

Operator
Country
US
Launch date
2024-01-07
Launch site
AFETR
Launch vehicle
Mass (kg)
RCS (m²)

Purposes: comms

External: N2YO · Heavens-Above · Gunter

§ Orbital elements

Epoch: 2026-05-25T00:12:31.993632Z

Period
94.27 min
Inclination
43.0020°
Eccentricity
0.0002012
Mean motion
15.27580012 rev/d
Perigee alt
481.7 km
Apogee alt
484.4 km
Semi-major
6,861.2 km
B*
3.8255e-5
RAAN
148.9252°
Arg perigee
271.3887°
Mean anomaly
88.6735°
Rev number
13,221

§ Raw data

STARLINK-311831 58747U 24005V   26145.00870363  .00000790  00000+0  38255-4 0  99992 58747  43.0020 148.9252 0002012 271.3887  88.6735 15.27580012132211

JSON: /api/v1/satellites/58747 · /tle

For live sub-satellite position, see the globe view (requires WebGL).

§ Visibility from observer

Set your observer location to see the next 7 days of passes ≥ 10°. The values pass through the URL so the page stays shareable.

No JS? Fill the form by hand. The geolocation button needs JavaScript.